Regional Weather Roundup
Issued by NWS

Current Version | Previous Version | Text Only | Print | Product List | Glossary On
Versions: 1 2 3 4 5 6 7 8 9 10 11 12 13 14 15 16 17 18 19 20 21 22 23 24 25 26 27 28 29 30 31 32 33 34 35 36 37 38 39 40 41 42 43 44 45 46 47 48 49 50
000
ASHW40 PHFO 211832
RWRHI

WEATHER ROUNDUP FOR HAWAII
NATIONAL WEATHER SERVICE HONOLULU HI
800 AM HST TUE NOV 21 2017

THIS IS AN AUTOMATED REPORT THAT HAS NOT BEEN QUALITY CONTROLLED.

NOTE..."FAIR" INDICATES FEW OR NO CLOUDS BELOW 12,000 FEET WITH NO
SIGNIFICANT WEATHER AND/OR OBSTRUCTIONS TO VISIBILITY.

* - THESE SITES REPORT LIMITED FIELDS
# - BUOY DATA PROVIDED BY PACIFIC ISLANDS OCEAN OBSERVING SYSTEM.

HIZ001>004-211900-
KAUAI-NIIHAU-

CITY           SKY/WX    TMP DP  RH WIND       PRES   REMARKS
LIHUE APT      SUNNY     63  60  90 W7        30.00R
PORT ALLEN*      N/A     63 N/A N/A NE9         N/A
POIPU*           N/A     61 N/A N/A N5          N/A
PRINCEVILLE*     N/A     70 N/A N/A SW1         N/A
KOKOLE POINT*  NOT AVBL
MOLOAA DAIRY*    N/A    N/A N/A N/A W1          N/A
WAIMEA HTS*    NOT AVBL
PUU OPAE*      NOT AVBL
PUU LUA*       NOT AVBL
MAKAHA RIDGE*    N/A     64  54  68 N3G13       N/A
$$

HIZ005>011-211900-
OAHU-

CITY           SKY/WX    TMP DP  RH WIND       PRES   REMARKS
HONOLULU       MOSUNNY   70  59  68 NW6       29.98R
KALAELOA       SUNNY     66  59  78 CALM      29.99R
KANEOHE MCB    PTSUNNY   76  55  48 NE8       29.95R
WHEELER FIELD  CLOUDY    65  57  75 NW9       30.01R
BELLOWS*         N/A    N/A N/A N/A N7G14       N/A
KAHUKU*          N/A    N/A N/A N/A SE1         N/A
WHEELER*       NOT AVBL
WAIANAE HARBOR NOT AVBL
DILLINGHAM*    NOT AVBL
KAHUKU TRN*      N/A     77  68  73 NW2G13      N/A
KAWAILOA*        N/A     64  57  77 VRB3G9      N/A
KII*             N/A     72  61  68 N6G20       N/A
MAKUA RANGE*     N/A     72  57  60 W7          N/A
OAHU FOREST NW NOT AVBL
SCHOFIELD BRK*   N/A     64  57  77 MISG        N/A
SCHOFIELD S*   NOT AVBL
WAIANAE VLY*   NOT AVBL
KUAOKALA*      NOT AVBL
HONOULIUULI*   NOT AVBL
MOKUOLOE IS*   NOT AVBL
PALEHUA*       NOT AVBL
WAIAWA PHB*    NOT AVBL
$$

HIZ012>013-211900-
MOLOKAI-

CITY           SKY/WX    TMP DP  RH WIND       PRES   REMARKS
MOLOKAI AIRPT  MOSUNNY   73  61  65 N10       29.98R
KALAUPAPA      NOT AVBL
MAKAPULAPAI*     N/A     72  61  68 NE7         N/A
MOLOKAI 1*     NOT AVBL
PUU ALII*        N/A     54  54 100 N1          N/A
$$

HIZ016-211900-
KAHOOLAWE-

CITY           SKY/WX    TMP DP  RH WIND       PRES   REMARKS
KAHOOLAWE*     NOT AVBL
HAKIOAWA*        N/A     69  60  72 MISG      30.38R
HONOKANAIA*    NOT AVBL
KANELOA*         N/A     66  59  77 N14G22    29.99R
KEALIALALO*    NOT AVBL
LUA MAKIKA*    NOT AVBL
$$

HIZ014>015-211900-
LANAI-

CITY           SKY/WX    TMP DP  RH WIND       PRES   REMARKS
LANAI CITY     FAIR      67  59  75 NE14G21   30.00R
LANAI 1*       NOT AVBL
$$

HIZ017>028-211900-
MAUI-

CITY           SKY/WX    TMP DP  RH WIND       PRES   REMARKS
KAHULUI        MOSUNNY   69  63  81 N9        29.97R
KAPALUA-W MAUI MOSUNNY   68  59  73 NE12      29.98
HANA AIRPORT   NOT AVBL
HANA*            N/A     72 N/A N/A W5          N/A
HALEAKALA SUMM   N/A     41  -4  15 NW13        N/A
MAALAEA BAY*     N/A     70 N/A N/A NE8G15      N/A
HALEAKALA*     NOT AVBL
KAUPO GAP*     NOT AVBL
KULA 1*          N/A     43  34  70 E3          N/A
$$

HIZ023>026-211900-
BIG ISLAND OF HAWAII COAST AND LOWER SLOPES-

CITY           SKY/WX    TMP DP  RH WIND       PRES   REMARKS
KAILUA KONA    MOSUNNY   74  53  48 CALM      29.93R
HILO           CLOUDY    69  56  62 SW6       29.96R
HONOKAA*         N/A     63 N/A N/A VRB1        N/A
KAWAIHAE MWT*    N/A     73 N/A N/A N1          N/A
KAWAIHAE*        N/A     75 N/A N/A CALM      29.94R
SOUTH POINT*     N/A     68 N/A N/A W3          N/A
UPOLU AIRPORT* NOT AVBL
KAMUELA*       CLOUDY    63  59  88 NE10      30.04S
HAKALAU*         N/A     48  43  81 W1          N/A
KALOKO-HONOKO*   N/A     79  55  44 NE3       29.93R
PALI 2*          N/A     66  50  55 S3          N/A
KEALAKOMO*       N/A     75  59  57 NW10G16     N/A
KAUPULEHU*     NOT AVBL
KAPAPALA*        N/A     60  60  99 N3          N/A
LOWER KAHUKU*    N/A     75  73  94 N2G8        N/A
PUHE CS*         N/A     72  52  49 NE3G9       N/A
PUHO CS*         N/A     70  47  44 E3          N/A
PTA KEAMUKU*     N/A     61  52  72 SE3         N/A
WAIKOLOA*      NOT AVBL
$$

HIZ027>028-211900-
BIG ISLAND OF HAWAII INTERIOR AND SUMMMITS-

CITY           SKY/WX    TMP DP  RH WIND       PRES   REMARKS
BRADSHAW FIELD CLOUDY    54  34  46 CALM      30.21R
MK VISITOR CEN   N/A     46   1  15 W6          N/A
MAUNA KEA*       N/A     28 -13  16 SW44G55     N/A  WCI  10
MAUNA LOA*       N/A     41 -11  10 MISG        N/A
MAUNA LOA 1*   NOT AVBL
PTA KIPUKA*      N/A    N/A N/A N/A N5          N/A
PTA RANGE 17*    N/A     48  34  57 W6          N/A
PTA WEST*        N/A     45  34  65 SE8G15      N/A
NENE CABIN*      N/A    N/A N/A N/A NE3         N/A
AHUMOA*        NOT AVBL
PTA PORTABLE*  NOT AVBL
PUU MALI*        N/A     54 N/A N/A NE2         N/A
$$

HIC003-211900-
NORTHWEST ISLANDS-

CITY           SKY/WX    TMP DP  RH WIND       PRES   REMARKS
MIDWAY ISLAND  CLOUDY    72  63  73 E21       30.19R
MIDWAY NOS*      N/A     73 N/A N/A MISG      30.17R
FRENCH FRIGATE NOT AVBL
$$

PHZ110>124-180-211900-
BUOY REPORTS

STATION/POSITION TIME  TEMP    WIND        PRES    WAVE   SWELL
                       AIR SEA DIR/SP/G            HT/PER HT/DIR
                 (UTC) (F)     (DEG/KT/KT) (MB)    (FT/S) (FT/D)
BUOY 51001       1810   72 77   20/ 17/ 21 1017.2
BUOY 51101       1750   72 77   20/ 19/ 23 1017.0R  10/11   7/ 30
BUOY 51100       NOT AVBL
BUOY 51002       1810   78 80   40/ 10/ 12 1013.0
BUOY 51003       1750   77 80   40/ 12/ 16 1013.7R   8/12   8/360
BUOY 51004       1810   77 80  360/  6/ 10 1013.7
WAIMEA BAY#      1732      76                N/A    11/11   8/ 10
MOKAPU POINT#    1804      78                N/A    11/12  10/ 10
LANAI#           NOT AVBL
BARBERS PT 2#    NOT AVBL
PAUWELA#         NOT AVBL
HILO#            1727      79                N/A    10/12   8
KANEOHE BAY#     NOT AVBL
KANEOHE BAY 2#   NOT AVBL
HANALEI#         1752      79                N/A    11/11   8/ 10
KAHULUI HARBOR   1800   72 78  320/  9/ 11 1014.8
HONOLULU HARBOR  1800   72 79  100/  1/  2 1015.8
PEARL HARBOR#    1800      79                N/A     1/ 9   2/170
KILO NALU        NOT AVBL
HILO HARBOR      1800   69 78  230/  4/  6 1014.3
MOKUOLOE         1736   74 76   50/  6/  7 1014.9R
NAWILIWILI       1800   64     240/  7/  8 1015.7
WHOTS BUOY       NOT AVBL
BUOY 51028       NOT AVBL
$$

......................KEY........................................
  SKY/WX - SKY CONDITIONS/PRESENT WEATHER
  TMP    - TEMPERATURE IN FAHRENHEIT
  DWPT   - DEWPOINT IN FAHRENHEIT
  RH     - RELATIVE HUMIDITY IN PERCENT
  WIND   - DIRECTION AND SPEED /MPH FOR ISLANDS...KTS FOR BUOYS/
  PRES   - MEAN SEA LEVEL PRESSURE IN INCHES OF HG
  VSB    - VISIBILITY IN MILES
  HX     - HEAT INDEX
  WCI    - WIND CHILL INDEX
  VRB    - VARIABLE WIND DIRECTION
  N/A    - NOT AVAILABLE




USA.gov is the U.S. government's official web portal to all federal, state and local government web resources and services.